Zurück zum Katalog

STARLINK-1465

AktivKommunikationVLEO
NORAD 45731·PAYLOAD·🇺🇸 United States

Gestartet Jun 13, 2020 von Cape Canaveral Space Force Station

Loading…

Nächste Überflüge (nächste 24 Stunden)

TLE

AktuellSource: CelesTrak SupGP

Epoche: Sep 14, 2026, 21:14 UTC

1 45731C 20038B   26257.88520833  .00098282  00000+0  45583-3 0  2575
2 45731  53.0401  12.5135 0002593 344.8346  44.6377 15.82669864    10

Verfolge STARLINK-1465 in Echtzeit mit AllMySat

Download on the App Store